Regional Weather Roundup
Issued by NWS

Home | Current Version | Previous Version | Text Only | Print | Product List | Glossary Off
Versions: 1 2 3 4 5 6 7 8 9 10 11 12 13 14 15 16 17 18 19 20 21 22 23 24 25 26 27 28 29 30 31 32 33 34 35 36 37 38 39 40 41 42 43 44 45 46 47 48 49 50

000
ASUS45 KPSR 210100
RWRAZ

PRELIMINARY ARIZONA REGIONAL HOURLY WEATHER ROUNDUP
NATIONAL WEATHER SERVICE PHOENIX AZ
600 PM MST SAT DEC 20 2014

NOTE: FAIR INDICATES FEW OR NO CLOUDS BELOW 12,000 FEET WITH NO
SIGNIFICANT WEATHER AND/OR OBSTRUCTIONS TO VISIBILITY.

AZZ001>003-036-210200-
NORTHWEST ARIZONA

CITY           SKY/WX    TMP DP  RH WIND       PRES   REMARKS
KINGMAN        MOCLDY    43  35  73 NE3       30.12R
$$

AZZ004>008-015-016-018-210200-
NORTH CENTRAL ARIZONA

CITY           SKY/WX    TMP DP  RH WIND       PRES   REMARKS
GRAND CANYON   CLOUDY    35  27  72 CALM      30.14S
PRESCOTT       MOCLDY    44  25  47 NW5       30.14R
FLAGSTAFF      NOT AVBL
PAYSON         MOCLDY    45  32  61 CALM      30.15R
PAGE           CLOUDY    40  30  67 CALM      30.13F
$$

AZZ009>014-017-210200-
NORTHEAST ARIZONA

CITY           SKY/WX    TMP DP  RH WIND       PRES   REMARKS
WINSLOW        NOT AVBL
SAINT JOHNS    MOCLDY    40  26  57 NE5       30.12R
WINDOW ROCK    MOCLDY    36  23  59 S5        30.13R WCI  32
SHOW LOW       MOCLDY    36  25  64 CALM      30.15R
$$

AZZ023-210200-
GREATER PHOENIX AREA

CITY           SKY/WX    TMP DP  RH WIND       PRES   REMARKS
PHOENIX        MOCLDY    62  36  37 NW7       30.07R
GLENDALE       MOCLDY    61  39  44 CALM      30.09R
LUKE AFB       MOCLDY    58  42  54 SW5       30.07R
DEER VALLEY    MOCLDY    57  37  47 CALM      30.08R
SCOTTSDALE     PTCLDY    59  38  45 CALM      30.09R
MESA-GATEWAY   MOCLDY    57  39  51 W3        30.10R
CHANDLER       PTCLDY    59  39  47 VRB5      30.08R
$$

AZZ027-028-210200-
SOUTHWEST MARICOPA COUNTY AND PINAL COUNTY

CITY           SKY/WX    TMP DP  RH WIND       PRES   REMARKS
CASA GRANDE    MOCLDY    55  39  54 CALM      30.08R
GILA BEND      FAIR      58  42  54 W1        30.08S
$$

AZZ503-504-507>509-210200-
SOUTHEAST ARIZONA

CITY           SKY/WX    TMP DP  RH WIND       PRES   REMARKS
TUCSON         PTCLDY    57  34  41 NW3       30.08S
DAVIS-MONTHAN  MOCLDY    53  38  57 NW5       30.06S
NOGALES        PTCLDY    53  24  32 N5        30.08S
SIERRA VISTA   CLEAR     48  25  40 W3        30.11R
SAFFORD        PTCLDY    49  38  65 W3        30.07S
$$

AZZ020-021-025-026-031-210200-
SOUTHWEST ARIZONA

CITY           SKY/WX    TMP DP  RH WIND       PRES   REMARKS
YUMA           MOCLDY   N/A N/A N/A W3        30.07S
$$

CAZ031-033-041-043-047-048-061-210200-
SOUTHERN CALIFORNIA

CITY           SKY/WX    TMP DP  RH WIND       PRES   REMARKS
DOWNTOWN L.A.  CLEAR     60  53  77 CALM      30.13R
L.A. AIRPORT   MOCLDY    61  55  81 W6        30.12S
SAN DIEGO      CLOUDY    62  53  72 NW3       30.14F
BURBANK        PTCLDY    59  50  72 SE3       30.12R
ONTARIO        PTCLDY    57  47  69 W3        30.14R
RIVERSIDE      PTCLDY    57  47  69 N3        30.14R
PALM SPRINGS   CLOUDY    64  42  44 NW3       30.10R
EL CENTRO NAS  CLOUDY    61  44  53 W3        30.07S
IMPERIAL       CLOUDY    60  45  57 W5        30.07S
BLYTHE         CLOUDY    59  47  64 CALM      30.08R
$$

NVZ020-UTZ003-210200-
SOUTHERN NEVADA-UTAH

CITY           SKY/WX    TMP DP  RH WIND       PRES   REMARKS
LAS VEGAS      NOT AVBL
SALT LAKE CITY CLOUDY    41  35  79 S6        30.08R
$$

NMZ009-TXZ055-210200-
NEW MEXICO-WEST TEXAS

CITY           SKY/WX    TMP DP  RH WIND       PRES   REMARKS
ALBUQUERQUE    MOCLDY    40  26  57 CALM      30.10R
EL PASO        PTCLDY    51  26  37 CALM      30.05S
$$


........................KEY........................
SKY/WX - SKY CONDITION/WEATHER
TMP    - TEMPERATURE IN FAHRENHEIT
DP     - DEW POINT IN FAHRENHEIT
RH     - RELATIVE HUMIDITY IN PERCENT
WIND   - DIRECTION AND SPEED IN MILES PER HOUR (MPH)
VRB    - VARIABLE WIND DIRECTION
PRES   - MEAN SEA LEVEL PRESSURE IN INCHES OF MERCURY
         F - FALLING PRESSURE   R - RISING PRESSURE
         S - STEADY PRESSURE
VSB    - VISIBILITY IN MILES
HX     - HEAT INDEX IN FAHRENHEIT
WCI    - WIND CHILL INDEX IN FAHRENHEIT
TC     - TEMPERATURE IN CELSIUS WHICH IS ALSO KNOWN AS
         TEMPERATURE IN CENTIGRADE
AFB    - AIR FORCE BASE
         LUKE AFB IS LUKE AIR FORCE BASE
         DAVIS-MONTHAN IS DAVIS-MONTHAN AIR FORCE BASE
NAS    - NAVAL AIR STATION
         EL CENTRO NAS IS EL CENTRO NAVAL AIR STATION
N/A    - NOT AVAILABLE



USA.gov is the U.S. government's official web portal to all federal, state and local government web resources and services.